Weather History for KBWG - May, 2013

Change the Weather History Date:

Saturday, May 25, 2013

  Actual Average Record
Temperature  
Mean Temperature 62 °F 69 °F  
Max Temperature 77 °F 80 °F 99 °F (1926)
Min Temperature 46 °F 58 °F 38 °F (1925)
Degree Days  
Heating Degree Days 3 1  
Month to date heating degree days 57 68  
Since 1 July heating degree days 3875 4037  
Cooling Degree Days 0 5  
Month to date cooling degree days 95 82  
Year to date cooling degree days 148 118  
Growing Degree Days 12 (Base 50)    
Moisture  
Dew Point 46 °F    
Average Humidity 59    
Maximum Humidity 86    
Minimum Humidity 31    
Precipitation  
Precipitation 0.00 in 0.17 in 2.51 in (1968)
Month to date precipitation 4.29 4.56  
Year to date precipitation 23.89 20.88  
Snow  
Snow 0.00 in 0.00 in 0.00 in ()
Month to date snowfall 0.0 0.0  
Since 1 July snowfall 3.8 9.1  
Snow Depth 0.00 in    
Sea Level Pressure  
Sea Level Pressure 30.28 in    
Wind  
Wind Speed 2 mph (ESE)    
Max Wind Speed 12 mph    
Max Gust Speed 14 mph    
Visibility 10 miles    
Events      
T = Trace of Precipitation, MM = Missing Value Source: NWS Daily Summary

Daily Weather History Graph

Daily Weather History Graph

Search for Another Location

Airport or City:

Trip Planner

Search our weather history database for the weather conditions in past years. The results will help you decide how hot, cold, wet, or windy it might be!

Date:

Astronomy

May. 25, 2013 Rise Set
Actual Time 5:30 AM CDT 7:54 PM CDT
Civil Twilight 5:00 AM CDT 8:24 PM CDT
Nautical Twilight 4:24 AM CDT 9:01 PM CDT
Astronomical Twilight 3:43 AM CDT 9:42 PM CDT
Moon 8:42 PM CDT (5/25) 5:56 AM CDT (5/25)
Length of Visible Light 15h 23m
Length of Day
14h 24m
Full, 100% of the Moon is Illuminated
May 25
Full
May 31
Last Quarter
Jun 8
New
Jun 16
First Quarter
Jun 23
Full

Hourly Weather History & Observations

Time (CDT) Temp. Dew Point Humidity Pressure Visibility Wind Dir Wind Speed Gust Speed Precip Events Conditions
12:53 AM 52.0 °F 46.0 °F 80% 30.31 in 10.0 mi Calm Calm - N/A   Clear
1:53 AM 50.0 °F 45.0 °F 83% 30.30 in 10.0 mi Calm Calm - N/A   Clear
2:53 AM 48.9 °F 45.0 °F 86% 30.30 in 10.0 mi Calm Calm - N/A   Clear
3:53 AM 48.0 °F 44.1 °F 86% 30.31 in 10.0 mi Calm Calm - N/A   Clear
4:53 AM 48.0 °F 44.1 °F 86% 30.30 in 10.0 mi Calm Calm - N/A   Clear
5:53 AM 48.0 °F 45.0 °F 89% 30.32 in 10.0 mi Calm Calm - N/A   Clear
6:53 AM 52.0 °F 46.9 °F 83% 30.32 in 10.0 mi Calm Calm - N/A   Clear
7:53 AM 57.9 °F 48.9 °F 72% 30.34 in 10.0 mi Calm Calm - N/A   Clear
8:53 AM 63.0 °F 46.9 °F 56% 30.36 in 10.0 mi SE 4.6 mph - N/A   Clear
9:53 AM 66.0 °F 45.0 °F 47% 30.35 in 10.0 mi SE 4.6 mph - N/A   Clear
10:53 AM 69.1 °F 45.0 °F 42% 30.35 in 10.0 mi Calm Calm - N/A   Clear
11:53 AM 71.1 °F 43.0 °F 36% 30.34 in 10.0 mi ENE 6.9 mph - N/A   Clear
12:53 PM 73.0 °F 45.0 °F 37% 30.32 in 10.0 mi East 4.6 mph - N/A   Clear
1:53 PM 73.0 °F 41.0 °F 31% 30.31 in 10.0 mi Calm Calm - N/A   Clear
2:53 PM 75.9 °F 43.0 °F 31% 30.29 in 10.0 mi East 6.9 mph - N/A   Clear
3:53 PM 75.0 °F 43.0 °F 32% 30.28 in 10.0 mi Calm Calm - N/A   Clear
4:53 PM 75.9 °F 44.1 °F 32% 30.26 in 10.0 mi East 3.5 mph - N/A   Clear
5:53 PM 75.0 °F 43.0 °F 32% 30.24 in 10.0 mi SE 3.5 mph - N/A   Clear
6:53 PM 72.0 °F 46.0 °F 40% 30.16 in 10.0 mi SSE 10.4 mph - N/A   Clear
7:53 PM 66.9 °F 48.9 °F 52% 30.19 in 10.0 mi ESE 4.6 mph - N/A   Clear
8:53 PM 64.0 °F 48.9 °F 58% 30.19 in 10.0 mi Calm Calm - N/A   Clear
9:53 PM 64.0 °F 50.0 °F 60% 30.21 in 10.0 mi Calm Calm - N/A   Overcast
10:53 PM 64.0 °F 51.1 °F 63% 30.22 in 10.0 mi Calm Calm - N/A   Overcast
11:53 PM 63.0 °F 52.0 °F 67% 30.22 in 10.0 mi Calm Calm - N/A   Overcast